Date,TemperatureHighF,TemperatureAvgF,TemperatureLowF,DewpointHighF,DewpointAvgF,DewpointLowF,HumidityHigh,HumidityAvg,HumidityLow,PressureMaxIn,PressureMinIn,WindSpeedMaxMPH,WindSpeedAvgMPH,GustSpeedMaxMPH,PrecipitationSumIn
2013-1-1,75,58,45,60,53,44,99,84,56,30.40,30.16,11,1,11,0.00
2013-1-2,66,61,58,62,59,55,96,91,85,30.28,30.13,7,2,7,0.01
2013-1-3,58,53,48,56,52,47,99,98,92,30.44,30.24,8,1,8,0.15
2013-1-4,56,48,44,49,46,42,99,91,75,30.51,30.41,9,2,9,0.00
2013-1-5,64,49,36,49,44,34,99,83,56,30.54,30.44,8,2,8,0.00
2013-1-6,55,52,50,53,50,48,99,94,87,30.45,30.30,8,1,8,0.19
2013-1-7,57,50,40,49,44,37,97,82,67,30.50,30.37,14,4,14,0.01
2013-1-8,66,59,52,58,55,48,95,86,74,30.50,30.41,8,3,8,0.00
2013-1-9,71,64,58,66,62,14,99,94,85,30.55,30.43,9,2,9,0.01
2013-1-10,71,64,61,68,63,60,99,95,83,30.56,30.48,11,2,11,0.01
2013-1-11,82,66,57,70,62,56,99,89,50,30.48,30.34,8,1,8,0.01
2013-1-12,82,67,59,68,63,59,99,87,54,30.39,30.29,6,1,6,0.00
2013-1-13,78,66,57,68,62,57,99,88,61,30.35,30.25,5,1,5,0.00
2013-1-14,82,68,60,69,62,60,99,85,54,30.38,30.28,9,1,9,0.00
2013-1-15,80,68,59,70,63,59,99,85,57,30.34,30.22,9,1,9,0.00
2013-1-16,84,69,61,69,62,60,99,82,48,30.26,30.13,12,1,12,0.00
2013-1-17,76,59,43,65,54,34,99,84,65,30.30,30.01,16,3,16,0.01
2013-1-18,60,48,38,39,35,27,94,64,30,30.62,30.31,15,4,15,0.00
2013-1-19,63,52,0,52,44,32,94,71,60,30.57,30.39,14,4,14,0.00
2013-1-20,71,57,48,54,49,46,97,77,44,30.40,30.25,10,1,10,0.00
2013-1-21,68,54,43,49,43,39,99,71,36,30.31,30.19,7,1,7,0.00
2013-1-22,61,50,40,41,30,23,68,49,24,30.48,30.26,11,3,11,0.00
2013-1-23,62,46,33,39,31,25,77,57,32,30.59,30.42,8,1,8,0.00
2013-1-24,72,57,46,53,46,38,86,68,44,30.52,30.33,15,4,15,0.00
2013-1-25,68,53,42,52,46,38,95,77,56,33.56,30.33,14,3,14,0.00
2013-1-26,76,61,49,60,54,48,97,81,55,30.43,30.30,9,2,9,0.00
2013-1-27,64,56,51,52,50,48,94,82,62,30.60,30.42,18,5,18,0.00
2013-1-28,76,62,53,61,56,52,97,83,59,30.58,30.45,10,3,10,0.00
2013-1-29,79,65,54,67,61,53,99,88,63,30.46,30.28,11,2,11,0.00
2013-1-30,80,69,54,67,64,52,97,83,60,30.29,29.88,14,3,14,0.12
2013-1-31,60,51,43,53,37,26,96,62,29,30.42,30.01,15,3,15,0.04